KD4EED Weather Reports


time (UTC)temp
C
wind
direction
speed
KPH
gust
KPH
rain 1hr
cm
rain 24hr
cm
rain mn
cm
humidity
%
barometer
mb
20260508054503 16 355 0.0 3.2 0.00 0.00 0.00 83 1013.6
20260508054000 16 325 1.6 3.2 0.00 0.00 0.00 83 1013.7
20260508053456 16 346 0.0 3.2 0.00 0.00 0.00 83 1013.6
20260508052954 16 343 1.6 3.2 0.00 0.00 0.00 83 1013.6
20260508052452 16 349 3.2 3.2 0.00 0.00 0.00 82 1013.6
20260508051948 16 316 3.2 3.2 0.00 0.00 0.00 82 1013.7
20260508051443 16 6 1.6 3.2 0.00 0.00 0.00 82 1013.6
20260508050940 16 355 1.6 3.2 0.00 0.00 0.00 82 1013.6
20260508050437 16 334 3.2 3.2 0.00 0.00 0.00 82 1013.7
20260508045933 16 10 3.2 3.2 0.00 0.00 0.00 82 1013.6
20260508045431 16 338 1.6 3.2 0.00 0.00 0.00 82 1013.5
20260508044928 16 5 3.2 3.2 0.00 0.00 0.00 82 1013.5
20260508044425 16 323 1.6 3.2 0.00 0.00 0.00 82 1013.4
20260508043920 16 14 1.6 3.2 0.00 0.00 0.00 82 1013.4
20260508043418 16 343 3.2 3.2 0.00 0.00 0.00 82 1013.3
20260508042914 16 353 3.2 3.2 0.00 0.00 0.00 82 1013.1
20260508042412 16 5 3.2 3.2 0.00 0.00 0.00 82 1013.1
20260508041909 16 303 3.2 4.8 0.00 0.00 0.00 82 1013.1
20260508041405 16 0 0.0 3.2 0.00 0.00 0.00 82 1012.9
20260508040901 16 346 1.6 3.2 0.00 0.00 0.00 82 1012.9
20260508040359 16 3 1.6 3.2 0.00 0.00 0.00 82 1012.7
20260508035857 16 330 0.0 3.2 0.00 0.00 0.00 82 1012.6
20260508035354 16 11 1.6 3.2 0.00 0.00 0.00 82 1012.5
20260508034850 16 319 1.6 4.8 0.00 0.00 0.00 82 1012.7
20260508034348 16 7 3.2 3.2 0.00 0.00 0.00 82 1012.5
20260508033844 16 18 1.6 3.2 0.00 0.00 0.00 82 1012.4
20260508033343 16 37 3.2 4.8 0.00 0.00 0.00 81 1012.3
20260508032840 16 351 1.6 3.2 0.00 0.00 0.00 81 1012.3
20260508032337 16 0 0.0 3.2 0.00 0.00 0.00 81 1012.3
20260508031833 16 22 3.2 4.8 0.00 0.00 0.00 80 1012.2
20260508031330 16 305 3.2 4.8 0.00 0.00 0.00 81 1012.1
20260508030827 16 354 3.2 4.8 0.00 0.00 0.00 81 1011.9
20260508030324 16 338 1.6 3.2 0.00 0.00 0.00 80 1012.1
20260508025821 16 19 1.6 3.2 0.00 0.00 0.00 80 1012.0
20260508025318 17 323 3.2 3.2 0.00 0.00 0.00 80 1012.0
20260508024815 17 311 1.6 4.8 0.00 0.00 0.00 79 1011.9
20260508024311 17 353 3.2 3.2 0.00 0.00 0.00 78 1011.9
20260508023808 17 23 1.6 3.2 0.00 0.00 0.00 78 1011.7
20260508023305 17 28 3.2 4.8 0.00 0.00 0.00 77 1011.7
20260508022801 17 305 1.6 3.2 0.00 0.00 0.00 76 1011.6
20260508022257 17 0 3.2 3.2 0.00 0.00 0.00 75 1011.6
20260508021755 18 351 1.6 4.8 0.00 0.00 0.00 74 1011.6
20260508021250 18 325 1.6 4.8 0.00 0.00 0.00 73 1011.7
20260508020747 18 359 1.6 4.8 0.00 0.00 0.00 71 1011.5
20260508020245 18 328 1.6 4.8 0.00 0.00 0.00 71 1011.5
20260508015741 18 14 3.2 4.8 0.00 0.00 0.00 70 1011.4
20260508015238 19 334 0.0 4.8 0.00 0.00 0.00 69 1011.4
20260508014735 19 348 3.2 6.4 0.00 0.00 0.00 68 1011.3
20260508014232 20 309 1.6 6.4 0.00 0.00 0.00 67 1011.5
20260508013728 20 356 0.0 6.4 0.00 0.00 0.00 67 1011.3
20260508013224 20 7 3.2 3.2 0.00 0.00 0.00 66 1011.1
20260508012722 20 309 1.6 3.2 0.00 0.00 0.00 65 1011.3
20260508012219 20 11 1.6 4.8 0.00 0.00 0.00 65 1011.3
20260508011717 20 323 3.2 4.8 0.00 0.00 0.00 65 1011.5
20260508011214 21 0 3.2 6.4 0.00 0.00 0.00 63 1011.5
20260508010711 21 4 3.2 6.4 0.00 0.00 0.00 61 1011.4
20260508010209 21 340 1.6 6.4 0.00 0.00 0.00 62 1011.2
20260508005706 21 328 3.2 4.8 0.00 0.00 0.00 61 1011.2
20260508005202 21 20 3.2 4.8 0.00 0.00 0.00 60 1011.4
20260508004658 22 0 1.6 6.4 0.00 0.00 0.00 59 1011.4
20260508004154 22 337 4.8 4.8 0.00 0.00 0.00 58 1011.5
20260508003651 22 4 3.2 9.7 0.00 0.00 0.00 58 1011.3
20260508003149 22 356 3.2 6.4 0.00 0.00 0.00 57 1011.3
20260508002645 23 349 1.6 4.8 0.00 0.00 0.00 56 1011.3
20260508002143 23 320 3.2 4.8 0.00 0.00 0.00 55 1011.3
20260508001638 23 298 4.8 6.4 0.00 0.00 0.00 55 1011.5
20260508001134 23 325 3.2 6.4 0.00 0.00 0.00 55 1011.2
20260508000630 23 24 3.2 6.4 0.00 0.00 0.00 53 1011.6
20260508000128 23 347 3.2 6.4 0.00 0.00 0.00 52 1011.4
20260507235624 23 342 3.2 6.4 0.00 0.00 0.00 54 1011.4
20260507235122 23 344 3.2 4.8 0.00 0.00 0.00 55 1011.5
20260507234618 23 358 3.2 4.8 0.00 0.00 0.00 55 1011.3
20260507234114 23 354 0.0 6.4 0.00 0.00 0.00 56 1011.3
20260507233611 23 1 1.6 6.4 0.00 0.00 0.00 57 1011.5
20260507233110 23 336 3.2 6.4 0.00 0.00 0.00 57 1011.5
20260507232606 23 323 4.8 6.4 0.00 0.00 0.00 56 1011.5
20260507232103 23 345 3.2 8.0 0.00 0.00 0.00 55 1011.4
20260507231600 23 20 4.8 4.8 0.00 0.00 0.00 57 1011.4
20260507231057 23 340 3.2 4.8 0.00 0.00 0.00 57 1011.6
20260507230553 23 324 3.2 4.8 0.00 0.00 0.00 57 1011.6
20260507230050 23 335 1.6 4.8 0.00 0.00 0.00 58 1011.6
20260507225544 23 32 3.2 6.4 0.00 0.00 0.00 59 1011.5
20260507225041 23 326 1.6 8.0 0.00 0.00 0.00 59 1011.7
20260507224537 23 348 3.2 4.8 0.00 0.00 0.00 57 1011.7
20260507224034 23 46 3.2 6.4 0.00 0.00 0.00 57 1012.0
20260507223530 24 348 1.6 6.4 0.00 0.00 0.00 56 1011.7
20260507223027 23 333 1.6 4.8 0.00 0.00 0.00 57 1011.7
20260507222525 23 4 3.2 4.8 0.00 0.00 0.00 56 1011.7
20260507222021 24 299 3.2 6.4 0.00 0.00 0.00 55 1012.0
20260507221517 24 336 1.6 4.8 0.00 0.00 0.00 55 1011.9
20260507221014 23 335 3.2 6.4 0.00 0.00 0.00 55 1011.9
20260507220512 23 305 3.2 6.4 0.00 0.00 0.00 55 1012.0
20260507220009 23 350 4.8 6.4 0.00 0.00 0.00 55 1011.9
20260507215505 23 293 3.2 4.8 0.00 0.00 0.00 55 1012.2
20260507215003 23 3 1.6 4.8 0.00 0.00 0.00 55 1012.2
20260507214500 23 275 4.8 4.8 0.00 0.00 0.00 56 1012.1
20260507213955 23 285 1.6 6.4 0.00 0.00 0.00 56 1012.3
20260507213452 23 11 3.2 8.0 0.00 0.00 0.00 57 1012.2
20260507212949 23 8 3.2 4.8 0.00 0.00 0.00 56 1012.4
20260507212444 23 315 1.6 4.8 0.00 0.00 0.00 57 1012.3
20260507211942 23 320 3.2 4.8 0.00 0.00 0.00 57 1012.4
20260507211438 24 344 3.2 6.4 0.00 0.00 0.00 55 1012.4
20260507210935 23 308 3.2 6.4 0.00 0.00 0.00 55 1012.6
20260507210432 24 343 1.6 6.4 0.00 0.00 0.00 55 1012.7
20260507205929 23 33 3.2 4.8 0.00 0.00 0.00 57 1012.6
20260507205426 23 342 3.2 6.4 0.00 0.00 0.00 56 1012.8
20260507204922 23 302 3.2 8.0 0.00 0.00 0.00 58 1012.8
20260507204418 23 24 3.2 6.4 0.00 0.00 0.00 58 1012.8
20260507203916 23 315 3.2 6.4 0.00 0.00 0.00 59 1012.9
20260507203414 23 25 3.2 6.4 0.00 0.00 0.00 57 1012.9
20260507202910 23 301 3.2 4.8 0.00 0.00 0.00 58 1012.9
20260507202407 23 304 3.2 6.4 0.00 0.00 0.00 57 1012.8
20260507201902 23 326 3.2 6.4 0.00 0.00 0.00 57 1013.0
20260507201358 23 358 3.2 6.4 0.00 0.00 0.00 57 1012.8
20260507200854 23 359 3.2 4.8 0.00 0.00 0.00 57 1013.0
20260507200350 24 326 3.2 6.4 0.00 0.00 0.00 55 1013.1
20260507195846 24 323 4.8 6.4 0.00 0.00 0.00 56 1013.1
20260507195344 24 8 3.2 4.8 0.00 0.00 0.00 55 1013.4
20260507194841 24 351 3.2 4.8 0.00 0.00 0.00 57 1013.4
20260507194337 23 347 3.2 6.4 0.00 0.00 0.00 56 1013.3
20260507193834 23 314 3.2 4.8 0.00 0.00 0.00 57 1013.4
20260507193332 24 28 3.2 4.8 0.00 0.00 0.00 56 1013.5
20260507192827 24 332 3.2 3.2 0.00 0.00 0.00 56 1013.7
20260507192324 23 325 3.2 3.2 0.00 0.00 0.00 55 1013.5
20260507191820 23 351 3.2 6.4 0.00 0.00 0.00 55 1013.6
20260507191316 23 356 1.6 4.8 0.00 0.00 0.00 59 1013.4
20260507190814 23 0 1.6 4.8 0.00 0.00 0.00 56 1013.4
20260507190312 23 9 3.2 4.8 0.00 0.00 0.00 57 1013.7
20260507185811 23 311 3.2 3.2 0.00 0.00 0.00 58 1013.7
20260507185307 23 2 3.2 3.2 0.00 0.00 0.00 56 1013.6
20260507184805 23 354 1.6 3.2 0.00 0.00 0.00 57 1013.8
20260507184303 23 349 0.0 3.2 0.00 0.00 0.00 58 1013.9
20260507183759 23 308 1.6 4.8 0.00 0.00 0.00 57 1013.7
20260507183256 23 330 3.2 4.8 0.00 0.00 0.00 58 1013.7
20260507182754 22 350 3.2 3.2 0.00 0.00 0.00 58 1013.7
20260507182254 22 1 3.2 4.8 0.00 0.00 0.00 59 1014.0
20260507181751 22 298 1.6 4.8 0.00 0.00 0.00 60 1013.8
20260507181247 22 352 1.6 4.8 0.00 0.00 0.00 58 1013.8
20260507180744 22 288 3.2 4.8 0.00 0.00 0.00 60 1014.0
20260507180241 22 3 1.6 4.8 0.00 0.00 0.00 60 1013.8
20260507175736 22 339 3.2 4.8 0.00 0.00 0.00 61 1013.8
20260507175233 22 329 3.2 3.2 0.00 0.00 0.00 61 1013.8
20260507174731 22 310 3.2 4.8 0.00 0.00 0.00 63 1013.7
20260507174229 22 317 3.2 4.8 0.00 0.00 0.00 61 1013.9
20260507173726 22 358 1.6 4.8 0.00 0.00 0.00 63 1014.0
20260507173223 22 359 3.2 4.8 0.00 0.00 0.00 62 1014.2
20260507172719 21 0 3.2 4.8 0.00 0.00 0.00 62 1013.9
20260507172211 21 5 3.2 3.2 0.00 0.00 0.00 63 1014.1
20260507171710 21 349 3.2 4.8 0.00 0.00 0.00 65 1014.0
20260507171208 21 302 3.2 4.8 0.00 0.00 0.00 64 1014.1
20260507170705 21 0 0.0 6.4 0.00 0.00 0.00 63 1013.9
20260507170202 21 340 1.6 4.8 0.00 0.00 0.00 64 1013.9
20260507165657 21 324 0.0 3.2 0.00 0.00 0.00 66 1013.9
20260507165154 20 356 3.2 4.8 0.00 0.00 0.00 68 1014.0
20260507164649 20 309 1.6 6.4 0.00 0.00 0.00 69 1014.0
20260507164147 19 312 3.2 4.8 0.00 0.00 0.00 72 1014.2
20260507163644 18 300 3.2 3.2 0.00 0.00 0.00 73 1014.1
20260507163142 18 329 1.6 3.2 0.00 0.00 0.00 76 1014.2
20260507162637 18 2 1.6 3.2 0.00 0.00 0.00 77 1014.1
20260507162134 17 326 3.2 3.2 0.00 0.00 0.00 78 1014.2
20260507161630 17 348 1.6 4.8 0.00 0.00 0.00 79 1014.1
20260507161127 17 327 1.6 4.8 0.00 0.00 0.00 80 1014.2
20260507160623 17 332 1.6 3.2 0.00 0.00 0.00 80 1014.1
20260507160120 17 328 1.6 4.8 0.00 0.00 0.00 81 1014.3
20260507155615 16 309 1.6 4.8 0.00 0.00 0.00 82 1014.4
20260507155112 16 334 1.6 3.2 0.00 0.00 0.00 83 1014.2
20260507154609 16 337 1.6 3.2 0.00 0.00 0.00 85 1014.3
20260507154106 16 323 1.6 3.2 0.00 0.00 0.00 84 1014.3
20260507153603 16 334 3.2 3.2 0.00 0.00 0.00 85 1014.2
20260507153059 15 344 1.6 3.2 0.00 0.00 0.00 86 1014.3
20260507152555 15 15 1.6 3.2 0.00 0.00 0.00 87 1014.2
20260507152052 15 347 1.6 3.2 0.00 0.00 0.00 88 1014.3
20260507151548 15 11 1.6 4.8 0.00 0.00 0.00 89 1014.4
20260507151045 15 32 1.6 3.2 0.00 0.00 0.00 91 1014.2
20260507150542 14 323 1.6 3.2 0.00 0.00 0.00 92 1014.3
20260507150040 14 310 1.6 3.2 0.00 0.00 0.00 94 1014.3
20260507145540 13 322 1.6 3.2 0.00 0.00 0.00 94 1014.2
20260507145038 13 331 1.6 3.2 0.00 0.00 0.00 94 1014.3
20260507144534 13 7 0.0 3.2 0.00 0.00 0.00 95 1014.2
20260507144032 13 326 0.0 3.2 0.00 0.00 0.00 95 1014.3
20260507143529 13 338 1.6 3.2 0.00 0.00 0.00 95 1014.3
20260507143027 13 335 0.0 3.2 0.00 0.00 0.00 95 1014.2
20260507142522 13 335 1.6 3.2 0.00 0.00 0.00 95 1014.1
20260507142019 12 331 1.6 3.2 0.00 0.00 0.00 95 1014.2
20260507141515 12 343 0.0 3.2 0.00 0.00 0.00 95 1014.0
20260507141012 12 348 1.6 1.6 0.00 0.00 0.00 95 1014.0
20260507140508 12 346 1.6 3.2 0.00 0.00 0.00 95 1013.9
20260507140006 12 329 1.6 3.2 0.00 0.00 0.00 94 1013.8
20260507135502 12 332 0.0 1.6 0.00 0.00 0.00 94 1013.9
20260507135000 12 344 1.6 3.2 0.00 0.00 0.00 94 1013.8
20260507134456 12 339 1.6 3.2 0.00 0.00 0.00 94 1013.8
20260507133953 12 1 1.6 3.2 0.00 0.00 0.00 94 1013.8
20260507133448 12 347 1.6 3.2 0.00 0.00 0.00 94 1013.7
20260507132947 12 330 1.6 3.2 0.00 0.00 0.00 94 1013.8
20260507132442 12 325 1.6 1.6 0.00 0.00 0.00 94 1013.8
20260507131939 11 343 1.6 3.2 0.00 0.00 0.00 94 1013.6
20260507131436 11 0 1.6 3.2 0.00 0.00 0.00 94 1013.6
20260507130933 11 341 1.6 3.2 0.00 0.00 0.00 93 1013.6
20260507130431 11 355 1.6 3.2 0.00 0.00 0.00 93 1013.6
20260507125929 11 348 1.6 3.2 0.00 0.00 0.00 93 1013.4
20260507125426 11 353 0.0 3.2 0.00 0.00 0.00 93 1013.6
20260507124924 11 356 0.0 3.2 0.00 0.00 0.00 93 1013.5
20260507124419 11 349 1.6 3.2 0.00 0.00 0.00 93 1013.4
20260507123918 11 310 0.0 3.2 0.00 0.00 0.00 93 1013.5
20260507123415 11 358 1.6 3.2 0.00 0.00 0.00 93 1013.4
20260507122912 11 327 1.6 3.2 0.00 0.00 0.00 93 1013.4
20260507122407 11 346 1.6 3.2 0.00 0.00 0.00 93 1013.3
20260507121903 11 323 0.0 3.2 0.00 0.00 0.00 93 1013.4
20260507121359 12 348 1.6 3.2 0.00 0.00 0.00 93 1013.3
20260507120856 12 333 1.6 3.2 0.00 0.00 0.00 93 1013.3
20260507120352 12 353 1.6 3.2 0.00 0.00 0.00 93 1013.5
20260507115848 12 333 0.0 3.2 0.00 0.00 0.00 93 1013.3
20260507115344 12 355 1.6 3.2 0.00 0.00 0.00 93 1013.4
20260507114840 12 340 1.6 3.2 0.00 0.00 0.00 93 1013.4
20260507114337 12 346 1.6 3.2 0.00 0.00 0.00 93 1013.4
20260507113834 12 335 1.6 3.2 0.00 0.00 0.00 93 1013.5
20260507113332 12 332 3.2 3.2 0.00 0.00 0.00 93 1013.5
20260507112829 12 356 1.6 3.2 0.00 0.00 0.00 93 1013.5
20260507112326 12 2 1.6 3.2 0.00 0.00 0.00 93 1013.5
20260507111824 12 332 1.6 3.2 0.00 0.00 0.00 92 1013.5
20260507111320 12 347 1.6 3.2 0.00 0.00 0.00 92 1013.6
20260507110816 12 350 1.6 3.2 0.00 0.00 0.00 92 1013.6
20260507110313 12 0 0.0 3.2 0.00 0.00 0.00 92 1013.4
20260507105810 12 347 1.6 3.2 0.00 0.00 0.00 92 1013.8
20260507105307 12 341 1.6 3.2 0.00 0.00 0.00 92 1013.6
20260507104803 12 356 1.6 3.2 0.00 0.00 0.00 92 1013.7
20260507104259 12 332 1.6 3.2 0.00 0.00 0.00 92 1013.9
20260507103756 12 347 1.6 1.6 0.00 0.00 0.00 92 1014.0
20260507103252 12 343 1.6 1.6 0.00 0.00 0.00 92 1013.9
20260507102749 12 336 1.6 3.2 0.00 0.00 0.00 92 1013.8
20260507102245 12 346 1.6 3.2 0.00 0.00 0.00 92 1014.0
20260507101741 12 338 1.6 3.2 0.00 0.00 0.00 92 1013.9
20260507101236 12 335 1.6 3.2 0.00 0.00 0.00 92 1013.9
20260507100734 12 345 1.6 3.2 0.00 0.00 0.00 91 1013.9
20260507100232 12 339 0.0 3.2 0.00 0.00 0.00 91 1013.9
20260507095730 12 3 1.6 3.2 0.00 0.00 0.00 92 1013.8
20260507095226 12 353 0.0 3.2 0.00 0.00 0.00 92 1014.1
20260507094723 12 6 1.6 3.2 0.00 0.00 0.00 91 1014.0
20260507094220 12 323 3.2 3.2 0.00 0.00 0.00 91 1014.0
20260507093717 12 355 0.0 3.2 0.00 0.00 0.00 91 1014.2
20260507093216 12 341 1.6 3.2 0.00 0.00 0.00 90 1014.2
20260507092713 13 332 1.6 3.2 0.00 0.00 0.00 90 1014.2
20260507092209 13 340 1.6 3.2 0.00 0.00 0.00 90 1014.3
20260507091705 13 357 1.6 3.2 0.00 0.00 0.00 90 1014.2
20260507091202 13 354 1.6 3.2 0.00 0.00 0.00 91 1014.4
20260507090657 13 325 0.0 3.2 0.00 0.00 0.00 91 1014.2
20260507090154 13 350 1.6 3.2 0.00 0.00 0.00 91 1014.3
20260507085652 13 330 0.0 3.2 0.00 0.00 0.00 91 1014.3
20260507085148 13 332 0.0 3.2 0.00 0.00 0.00 91 1014.5
20260507084645 13 333 1.6 1.6 0.00 0.00 0.00 91 1014.6
20260507084142 13 339 1.6 3.2 0.00 0.00 0.00 91 1014.5
20260507083639 13 331 1.6 3.2 0.00 0.00 0.00 91 1014.6
20260507083135 13 356 0.0 3.2 0.00 0.00 0.00 91 1014.7
20260507082631 13 341 1.6 3.2 0.00 0.00 0.00 91 1014.7
20260507082128 13 351 1.6 3.2 0.00 0.00 0.00 91 1014.6
20260507081625 13 347 1.6 3.2 0.00 0.00 0.00 91 1014.7
20260507081121 13 333 3.2 3.2 0.00 0.00 0.00 90 1014.7
20260507080617 13 327 0.0 3.2 0.00 0.00 0.00 90 1014.8
20260507080115 13 328 3.2 3.2 0.00 0.00 0.00 90 1014.6
20260507075614 13 347 1.6 3.2 0.00 0.00 0.00 91 1014.6
20260507075111 13 329 0.0 1.6 0.00 0.00 0.00 91 1014.8
20260507074608 13 330 1.6 3.2 0.00 0.00 0.00 90 1014.5
20260507074106 13 332 1.6 3.2 0.00 0.00 0.00 90 1014.9
20260507073602 13 342 0.0 3.2 0.00 0.00 0.00 91 1014.8
20260507073058 13 339 1.6 3.2 0.00 0.00 0.00 90 1014.7
20260507072556 13 334 1.6 3.2 0.00 0.00 0.00 91 1014.8
20260507072053 13 9 0.0 3.2 0.00 0.00 0.00 90 1014.9
20260507071551 13 8 0.0 3.2 0.00 0.00 0.00 90 1015.0
20260507071047 13 1 1.6 3.2 0.00 0.00 0.00 89 1014.8
20260507070544 13 341 0.0 3.2 0.00 0.00 0.00 89 1014.9
20260507070041 13 334 0.0 3.2 0.00 0.00 0.00 90 1014.9
20260507065537 14 339 0.0 3.2 0.00 0.00 0.00 90 1014.8
20260507065034 14 0 1.6 3.2 0.00 0.00 0.00 90 1015.0
20260507064532 14 324 3.2 3.2 0.00 0.00 0.00 89 1015.0
20260507064031 14 346 1.6 3.2 0.00 0.00 0.00 89 1014.9
20260507063527 14 2 1.6 3.2 0.00 0.00 0.00 88 1015.1
20260507063025 14 351 1.6 3.2 0.00 0.00 0.00 88 1015.1
20260507062521 14 331 1.6 3.2 0.00 0.00 0.00 88 1015.0
20260507062019 14 321 1.6 3.2 0.00 0.00 0.00 88 1015.2
20260507061517 14 327 1.6 3.2 0.00 0.00 0.00 88 1014.9
20260507061015 14 339 1.6 3.2 0.00 0.00 0.00 87 1015.1
20260507060512 14 327 1.6 3.2 0.00 0.00 0.00 87 1015.1
20260507060009 14 315 3.2 3.2 0.00 0.00 0.00 87 1014.9
20260507055503 14 318 1.6 3.2 0.00 0.00 0.00 87 1014.9
20260507055000 15 337 1.6 3.2 0.00 0.00 0.00 87 1015.1